Torna al catalogo

STARLINK-36470

AttivoComunicazioniVLEO
NORAD 67319·PAYLOAD·🇺🇸 United States

Lanciato Jan 4, 2026 da Cape Canaveral Space Force Station

Loading…

Prossimi Passaggi (prossime 24 ore)

TLE

AggiornatoSource: CelesTrak SupGP

Epoca: Sep 14, 2026, 22:58 UTC

1 67319C 26002Q   26257.95743056 -.00016654  00000+0 -60324-3 0  2575
2 67319  43.0022 336.5546 0001553 265.8668  71.5582 15.27584043    14

Traccia STARLINK-36470 in tempo reale con AllMySat

Download on the App Store